Stations météo

réclame
Mon MeteoGroup
Socoa, France (7600): Température de l'air & dewpoint: 17.09.2017 22:00:00 - 23.09.2017 22:00:00 (CEST)Socoa, France (7600): Vitesse du vent & gusts: 17.09.2017 22:00:00 - 23.09.2017 22:00:00 (CEST)Socoa, France (7600): Direction du vent: 17.09.2017 22:00:00 - 23.09.2017 22:00:00 (CEST)Socoa, France (7600): reduced air pressure: 17.09.2017 22:00:00 - 23.09.2017 22:00:00 (CEST)Socoa, France (7600): visibility: 17.09.2017 22:00:00 - 23.09.2017 22:00:00 (CEST)Socoa, France (7600): Quantités de précipitations: 17.09.2017 22:00:00 - 23.09.2017 22:00:00 (CEST)
Date & Time tt [°C] td [°C] ff [km/h] ff [knt] fx [km/h] fx [knt] dd ppp [hPa] vv [km] rr [mm]
23.09.2017 22:00:00 - - - - - - - - - -
23.09.2017 21:00:00 20,3 16,3 3 2 16 8 NW 1018,1 - 0,0
23.09.2017 20:00:00 21,8 16,7 12 7 20 11 NE 1017,5 20 0,0
23.09.2017 19:00:00 23,8 16,6 14 7 20 11 NE 1017,0 - 0,0
23.09.2017 18:00:00 25,0 16,2 13 7 23 12 NE 1016,9 - 0,0
23.09.2017 17:00:00 25,0 18,0 19 10 23 13 NE 1017,2 - 0,0
23.09.2017 16:00:00 28,3 15,6 7 4 25 14 SSE 1017,3 - 0,0
23.09.2017 15:00:00 28,1 14,7 14 8 26 14 SSE 1017,7 - 0,0
23.09.2017 14:00:00 27,1 14,5 18 10 35 19 S 1018,0 - 0,0
23.09.2017 13:00:00 25,5 13,7 18 10 41 22 S 1018,4 - 0,0
23.09.2017 12:00:00 21,9 16,8 7 4 11 6 NNW 1018,8 - 0,0
23.09.2017 11:00:00 20,9 14,1 6 3 13 7 E 1019,0 20 0,0
23.09.2017 10:00:00 17,1 13,6 8 4 16 9 ESE 1019,1 - 0,0
23.09.2017 09:00:00 13,3 12,5 6 3 17 9 SE 1019,0 - 0,0
23.09.2017 08:00:00 12,0 11,4 12 6 18 10 SE 1019,0 20 0,0
23.09.2017 07:00:00 12,0 11,4 11 6 16 9 SE 1019,2 - 0,0
23.09.2017 06:00:00 12,3 11,7 9 5 16 8 ESE 1019,6 - 0,0
23.09.2017 05:00:00 11,9 11,3 6 3 10 5 ESE 1020,2 - 0,2
23.09.2017 04:00:00 12,4 11,8 6 3 10 5 SE 1021,1 - 0,0
23.09.2017 03:00:00 12,6 11,8 9 5 12 7 ESE 1021,9 - 0,0
23.09.2017 02:00:00 12,9 12,0 6 3 9 5 ESE 1022,0 - 0,0
23.09.2017 01:00:00 13,6 12,5 5 3 9 5 SE 1022,3 - 0,0
23.09.2017 00:00:00 14,3 13,0 4 2 11 6 SSE 1022,5 - 0,0
22.09.2017 23:00:00 15,3 13,5 6 3 10 6 ESE 1022,5 18 0,0
22.09.2017 22:00:00 16,9 14,5 4 2 25 13 SE 1022,5 - 0,0
22.09.2017 21:00:00 18,2 16,2 21 12 27 14 NE 1022,1 - 0,0
22.09.2017 20:00:00 18,7 16,1 18 10 28 15 NNE 1021,9 - 0,0
22.09.2017 19:00:00 20,1 16,3 14 8 22 12 NNE 1021,9 - 0,0
22.09.2017 18:00:00 20,8 15,1 8 4 14 7 NNE 1022,1 - 0,0
22.09.2017 17:00:00 21,6 14,5 7 4 11 6 N 1022,3 - 0,0
22.09.2017 16:00:00 20,7 14,6 8 4 12 6 N 1022,8 - 0,0
22.09.2017 15:00:00 20,6 15,2 7 4 12 6 NE 1022,9 - 0,0
22.09.2017 14:00:00 19,8 14,8 9 5 13 7 NNE 1023,2 - 0,0
22.09.2017 13:00:00 19,4 14,6 6 3 9 5 N 1023,1 - 0,0
22.09.2017 12:00:00 18,4 14,1 2 1 10 5 S 1022,8 - 0,0
22.09.2017 11:00:00 17,2 14,8 3 1 11 6 S 1022,4 18 0,0
22.09.2017 10:00:00 16,4 14,9 7 4 14 8 S 1022,1 - 0,0
22.09.2017 09:00:00 16,1 15,0 5 3 12 6 SSE 1022,2 - 0,0
22.09.2017 08:00:00 16,0 14,7 6 3 15 8 SSE 1021,6 17 0,0
22.09.2017 07:00:00 15,9 14,6 4 2 17 9 SE 1021,0 - 0,0
22.09.2017 06:00:00 15,7 14,1 7 4 16 8 S 1021,1 - 0,0
22.09.2017 05:00:00 15,9 14,3 8 4 18 10 SSE 1021,1 20 0,0
22.09.2017 04:00:00 16,0 14,2 13 7 15 8 S 1021,7 - 0,0
22.09.2017 03:00:00 16,0 14,5 11 6 17 9 S 1021,9 - 0,0
22.09.2017 02:00:00 15,9 14,6 14 8 17 9 SSW 1021,9 - 0,0
22.09.2017 01:00:00 16,2 14,7 11 6 16 8 SSW 1021,6 - 0,0
22.09.2017 00:00:00 16,7 14,9 13 7 17 9 SSW 1021,2 - 0,0
21.09.2017 23:00:00 17,1 14,9 12 6 16 8 SW 1021,3 - 0,0
21.09.2017 22:00:00 17,9 15,2 11 6 18 10 SW 1021,1 - 0,0
21.09.2017 21:00:00 18,7 15,6 11 6 26 14 WSW 1020,9 - 0,0
21.09.2017 20:00:00 19,1 15,6 19 10 26 14 W 1020,4 18 0,0
21.09.2017 19:00:00 19,6 16,1 19 10 26 14 W 1019,9 - 0,0
21.09.2017 18:00:00 20,4 16,6 21 12 27 15 W 1019,0 - 0,0
21.09.2017 17:00:00 21,0 16,8 23 12 28 15 W 1018,5 - 0,0
21.09.2017 16:00:00 21,4 16,8 19 10 - - W 1018,2 - 0,0
21.09.2017 15:00:00 22,1 15,9 16 9 22 12 W 1018,1 - 0,0
21.09.2017 14:00:00 21,9 15,3 16 9 22 12 W 1018,3 - 0,0
21.09.2017 13:00:00 21,6 15,2 17 9 22 12 W 1018,4 - 0,0
21.09.2017 12:00:00 21,7 13,1 11 6 16 9 W 1018,1 - 0,0
21.09.2017 11:00:00 20,7 12,4 11 6 16 9 W 1017,8 20 0,0
21.09.2017 10:00:00 17,0 12,3 8 4 14 7 WSW 1017,6 - 0,0
21.09.2017 09:00:00 11,9 9,5 9 5 16 8 SSW 1017,5 - 0,2
21.09.2017 08:00:00 10,6 8,9 12 7 14 8 SW 1017,1 20 0,0
21.09.2017 07:00:00 10,5 9,1 11 6 13 7 SSW 1016,7 - 0,0
21.09.2017 06:00:00 10,7 9,5 6 4 11 6 SW 1016,8 - 0,0
21.09.2017 05:00:00 11,0 9,9 9 5 11 6 S 1016,9 - 0,0
21.09.2017 04:00:00 11,7 10,3 8 5 11 6 S 1016,9 - 0,0
21.09.2017 03:00:00 12,0 10,7 6 4 13 7 SSW 1017,3 - 0,0
21.09.2017 02:00:00 12,0 10,9 8 4 11 6 SSW 1017,2 - 0,0
21.09.2017 01:00:00 12,5 11,2 5 3 10 6 S 1017,3 - 0,0
21.09.2017 00:00:00 13,8 11,3 5 3 19 10 SE 1017,4 - 0,0
20.09.2017 23:00:00 16,1 11,9 13 7 23 12 ESE 1017,3 15 0,0
20.09.2017 22:00:00 16,3 10,6 11 6 22 12 ESE 1017,5 - 0,0
20.09.2017 21:00:00 17,8 10,7 15 8 23 12 ESE 1017,7 - 0,0
20.09.2017 20:00:00 19,9 11,4 14 8 25 14 E 1017,9 20 0,0
20.09.2017 19:00:00 21,5 10,0 19 10 31 17 E 1018,2 - 0,0
20.09.2017 18:00:00 22,6 10,1 21 11 31 17 E 1018,6 - 0,0
20.09.2017 17:00:00 23,3 9,7 19 11 32 18 E 1019,1 - 0,0
20.09.2017 16:00:00 23,4 11,1 19 11 28 15 ENE 1019,8 - 0,0
20.09.2017 15:00:00 23,5 10,5 16 8 27 14 ENE 1020,3 - 0,0
20.09.2017 14:00:00 22,7 12,6 8 4 19 10 ENE 1020,9 - 0,0
20.09.2017 13:00:00 20,7 11,6 10 6 24 13 ESE 1021,6 - 0,0
20.09.2017 12:00:00 18,9 11,7 9 5 23 13 E 1022,3 - 0,0
20.09.2017 11:00:00 16,6 10,9 8 4 13 7 ESE 1022,8 20 0,0
20.09.2017 10:00:00 13,8 11,0 4 2 11 6 ESE 1023,1 - 0,0
20.09.2017 09:00:00 10,5 9,7 6 3 18 10 SSE 1023,2 - 0,0
20.09.2017 08:00:00 9,8 9,2 10 6 16 9 ESE 1023,7 20 0,0
20.09.2017 07:00:00 9,2 8,4 6 3 11 6 S 1023,8 - 0,0
20.09.2017 06:00:00 9,8 9,0 6 4 12 6 SSE 1024,0 - 0,0
20.09.2017 05:00:00 10,1 9,3 9 5 11 6 SSE 1024,3 20 0,0
20.09.2017 04:00:00 10,3 9,2 5 3 11 6 SSE 1024,7 - 0,0
20.09.2017 03:00:00 10,7 9,5 3 2 11 6 SE 1025,0 - 0,0
20.09.2017 02:00:00 11,3 10,0 6 3 13 7 SSE 1025,3 - 0,0
20.09.2017 01:00:00 11,6 10,2 10 5 17 9 S 1025,3 - 0,0
20.09.2017 00:00:00 11,9 10,3 8 4 14 8 SSE 1025,8 - 0,0
19.09.2017 23:00:00 12,5 10,4 8 4 12 6 SSE 1025,9 10 0,0
19.09.2017 22:00:00 13,4 10,7 9 5 16 9 S 1026,1 - 0,0
19.09.2017 21:00:00 14,6 11,2 7 4 11 6 S 1025,8 - 0,0
19.09.2017 20:00:00 17,1 9,3 5 3 12 7 NNW 1025,6 20 0,0
19.09.2017 19:00:00 19,0 10,0 7 4 15 8 NW 1025,4 - 0,0
19.09.2017 18:00:00 19,7 10,7 9 5 18 10 NW 1025,3 - 0,0
19.09.2017 17:00:00 20,1 10,2 14 8 20 11 NW 1025,6 - 0,0
19.09.2017 16:00:00 19,8 9,7 13 7 22 12 NW 1025,9 - 0,0
19.09.2017 15:00:00 19,7 9,8 17 9 27 15 NNW 1026,3 - 0,0
19.09.2017 14:00:00 19,6 10,8 18 10 27 15 NNW 1026,5 20 0,0
19.09.2017 13:00:00 18,8 10,9 18 10 29 16 NNW 1026,3 - 0,0
19.09.2017 12:00:00 19,2 11,0 14 8 22 12 N 1026,2 - 0,0
19.09.2017 11:00:00 19,8 13,0 3 2 13 7 NW 1025,9 15 0,0
19.09.2017 10:00:00 15,0 12,9 8 4 18 10 SSW 1025,6 - 0,0
19.09.2017 09:00:00 13,0 11,9 14 8 17 9 SSW 1025,1 - 0,0
19.09.2017 08:00:00 12,3 11,0 12 6 15 8 SSW 1024,9 20 0,0
19.09.2017 07:00:00 13,0 11,1 7 4 20 11 SW 1024,7 - 0,0
19.09.2017 06:00:00 16,3 9,7 15 8 27 15 NW 1024,6 - 0,0
19.09.2017 05:00:00 13,3 12,7 9 5 19 10 W 1024,4 20 0,0
19.09.2017 04:00:00 13,4 12,9 10 5 15 8 S 1024,5 - 0,0
19.09.2017 03:00:00 13,3 12,7 10 5 14 7 S 1024,6 - 0,0
19.09.2017 02:00:00 14,1 13,5 10 6 13 7 S 1024,4 - 0,0
19.09.2017 01:00:00 14,7 13,7 5 3 13 7 S 1024,5 - 0,0
19.09.2017 00:00:00 15,2 14,1 5 3 13 7 SSW 1024,4 - 0,0
18.09.2017 23:00:00 15,4 14,1 8 4 14 7 SSW 1024,1 - 0,0
18.09.2017 22:00:00 16,0 14,0 6 3 19 11 SW 1023,7 - 0,0
18.09.2017 21:00:00 16,3 14,3 6 3 13 7 SW 1022,9 - 0,0
18.09.2017 20:00:00 16,9 13,8 10 5 17 9 WNW 1022,2 25 0,0
18.09.2017 19:00:00 17,2 13,9 10 6 24 13 NW 1021,5 - 0,0
18.09.2017 18:00:00 16,8 13,5 15 8 32 18 NW 1021,2 - 0,0
18.09.2017 17:00:00 16,2 14,6 19 10 29 16 NNW 1020,9 15 0,6
18.09.2017 16:00:00 17,2 14,7 11 6 19 11 WNW 1020,5 - 0,2
18.09.2017 15:00:00 17,1 14,6 14 8 23 12 NW 1020,4 - 0,2
18.09.2017 14:00:00 17,7 14,0 11 6 17 9 NW 1020,4 - 0,0
18.09.2017 13:00:00 17,2 14,1 9 5 21 11 NNW 1019,9 - 0,0
18.09.2017 12:00:00 16,3 14,1 9 5 15 8 W 1019,7 - 0,0
18.09.2017 11:00:00 15,3 14,2 4 2 9 5 SW 1019,2 18 0,0
18.09.2017 10:00:00 14,6 14,1 2 1 14 8 SSW 1019,0 - 0,0
18.09.2017 09:00:00 13,7 13,2 10 5 16 9 SSW 1018,6 - 0,6
18.09.2017 08:00:00 13,7 13,2 9 5 14 7 S 1018,3 10 0,8
18.09.2017 07:00:00 13,9 13,4 8 5 12 7 S 1018,1 - 1,0
18.09.2017 06:00:00 14,0 13,4 9 5 13 7 S 1018,0 - 1,0
18.09.2017 05:00:00 14,1 13,3 11 6 29 15 S 1018,4 13 1,8
18.09.2017 04:00:00 14,7 13,6 19 11 29 16 NW 1018,5 - 6,3
18.09.2017 03:00:00 14,2 13,2 14 8 21 11 SSW 1018,5 - 0,2
18.09.2017 02:00:00 14,4 13,6 16 8 19 10 SSW 1018,7 - 0,0
18.09.2017 01:00:00 14,6 13,6 4 2 22 12 SSW 1019,2 - 2,8
18.09.2017 00:00:00 14,7 13,6 10 6 24 13 S 1019,6 - 4,4
17.09.2017 23:00:00 15,4 13,6 10 5 21 12 SW 1019,7 - 1,2
17.09.2017 22:00:00 15,3 13,0 11 6 19 10 SSW 1019,7 - 0,0

tt = Température de l'air
td = dewpoint
ff = Vitesse du vent
fx = gusts
dd = Direction du vent
ppp = reduced air pressure
vv = visibility
rr = Quantités de précipitations

stations d'obs. à proximité